AL7BX-WX Weather Reports


time (UTC)temp
C
wind
direction
speed
KPH
gust
KPH
rain 1hr
cm
rain 24hr
cm
rain mn
cm
humidity
%
barometer
mb
20260904220003 28 175 17.7 30.6 0.00 0.00 0.00 26
20260904215403 28 165 17.7 30.6 0.00 0.00 0.00 28
20260904214503 28 165 20.9 41.8 0.00 0.00 0.00 26
20260904213603 27 174 22.5 48.3 0.00 0.00 0.00 27
20260904212703 27 176 20.9 43.5 0.00 0.00 0.00 28
20260904211803 27 174 20.9 41.8 0.00 0.00 0.00 28
20260904210903 27 172 24.1 46.7 0.00 0.00 0.00 28
20260904210003 27 181 20.9 45.1 0.00 0.00 0.00 29
20260904205403 27 175 20.9 45.1 0.00 0.00 0.00 29
20260904204713 27 176 22.5 49.9 0.00 0.00 0.00 28
20260904203814 27 184 20.9 43.5 0.00 0.00 0.00 29
20260904202703 27 170 22.5 45.1 0.00 0.00 0.00 28
20260904202013 27 175 24.1 43.5 0.00 0.00 0.00 27
20260904200903 27 143 16.1 30.6 0.00 0.00 0.00 29
20260904200003 27 157 17.7 40.2 0.00 0.00 0.00 30
20260904195403 26 154 19.3 40.2 0.00 0.00 0.00 30
20260904194503 26 160 16.1 30.6 0.00 0.00 0.00 32
20260904193603 26 160 16.1 30.6 0.00 0.00 0.00 31
20260904192703 26 161 17.7 35.4 0.00 0.00 0.00 31
20260904191803 26 164 16.1 37.0 0.00 0.00 0.00 32
20260904190903 26 172 22.5 46.7 0.00 0.00 0.00 32
20260904190003 26 165 20.9 41.8 0.00 0.00 0.00 31
20260904185403 25 169 24.1 41.8 0.00 0.00 0.00 32
20260904184714 25 174 22.5 41.8 0.00 0.00 0.00 31
20260904183603 25 179 22.5 45.1 0.00 0.00 0.00 32
20260904182703 25 182 20.9 46.7 0.00 0.00 0.00 33
20260904181803 24 184 22.5 41.8 0.00 0.00 0.00 35
20260904180903 25 162 20.9 51.5 0.00 0.00 0.00 34
20260904180213 25 172 20.9 46.7 0.00 0.00 0.00 33
20260904175403 24 167 24.1 46.7 0.00 0.00 0.00 34
20260904174503 24 174 24.1 41.8 0.00 0.00 0.00 34
20260904173603 23 175 22.5 41.8 0.00 0.00 0.00 34
20260904172703 23 170 22.5 53.1 0.00 0.00 0.00 34
20260904171803 23 167 24.1 41.8 0.00 0.00 0.00 34
20260904170903 23 165 22.5 46.7 0.00 0.00 0.00 35
20260904170003 23 153 17.7 35.4 0.00 0.00 0.00 34
20260904165403 23 159 19.3 35.4 0.00 0.00 0.00 34
20260904164503 23 151 19.3 35.4 0.00 0.00 0.00 34
20260904163603 23 148 17.7 38.6 0.00 0.00 0.00 35
20260904162703 22 151 19.3 37.0 0.00 0.00 0.00 35
20260904161803 22 151 20.9 40.2 0.00 0.00 0.00 36
20260904160903 22 157 20.9 41.8 0.00 0.00 0.00 35
20260904160003 22 144 20.9 41.8 0.00 0.00 0.00 35
20260904155403 22 151 17.7 43.5 0.00 0.00 0.00 35
20260904154503 22 159 17.7 40.2 0.00 0.00 0.00 35
20260904153603 21 153 19.3 40.2 0.00 0.00 0.00 35
20260904152703 21 150 16.1 37.0 0.00 0.00 0.00 35
20260904151803 21 153 17.7 40.2 0.00 0.00 0.00 35
20260904150903 21 152 16.1 32.2 0.00 0.00 0.00 35
20260904150003 21 156 14.5 32.2 0.00 0.00 0.00 33
20260904145403 21 149 14.5 33.8 0.00 0.00 0.00 33
20260904144503 20 158 14.5 40.2 0.00 0.00 0.00 34
20260904143603 20 156 12.9 41.8 0.00 0.00 0.00 34
20260904142703 20 157 12.9 27.4 0.00 0.00 0.00 33
20260904141803 20 155 12.9 27.4 0.00 0.00 0.00 32
20260904141114 19 148 16.1 27.4 0.00 0.00 0.00 32
20260904140003 18 145 11.3 33.8 0.00 0.00 0.00 31
20260904135613 18 146 11.3 22.5 0.00 0.00 0.00 31
20260904134714 18 149 11.3 29.0 0.00 0.00 0.00 30
20260904133603 18 154 9.7 24.1 0.00 0.00 0.00 31
20260904132703 18 152 9.7 27.4 0.00 0.00 0.00 32
20260904131803 18 162 8.0 33.8 0.00 0.00 0.00 33
20260904130903 18 154 12.9 33.8 0.00 0.00 0.00 33
20260904130003 18 146 11.3 22.5 0.00 0.00 0.00 34
20260904125403 18 147 11.3 22.5 0.00 0.00 0.00 34
20260904124714 18 147 9.7 22.5 0.00 0.00 0.00 36
20260904123603 18 140 11.3 25.7 0.00 0.00 0.00 38
20260904122703 19 147 12.9 32.2 0.00 0.00 0.00 41
20260904121803 19 144 14.5 35.4 0.00 0.00 0.00 41
20260904120903 19 148 12.9 25.7 0.00 0.00 0.00 42
20260904120003 19 146 16.1 40.2 0.00 0.00 0.00 44
20260904115403 19 147 14.5 40.2 0.00 0.00 0.00 44
20260904114503 19 146 12.9 24.1 0.00 0.00 0.00 45
20260904113603 20 146 14.5 29.0 0.00 0.00 0.00 44
20260904112703 20 147 11.3 32.2 0.00 0.00 0.00 45
20260904112013 20 148 11.3 32.2 0.00 0.00 0.00 45
20260904110903 20 145 14.5 27.4 0.00 0.00 0.00 46
20260904110003 20 141 14.5 25.7 0.00 0.00 0.00 46
20260904105403 20 140 14.5 32.2 0.00 0.00 0.00 46
20260904104713 20 146 14.5 35.4 0.00 0.00 0.00 46
20260904103603 20 141 14.5 37.0 0.00 0.00 0.00 46
20260904102703 20 145 11.3 24.1 0.00 0.00 0.00 46
20260904101803 20 142 12.9 25.7 0.00 0.00 0.00 45
20260904100903 20 142 12.9 32.2 0.00 0.00 0.00 45
20260904100003 20 145 16.1 32.2 0.00 0.00 0.00 45
20260904095403 20 149 14.5 29.0 0.00 0.00 0.00 44
20260904094503 20 163 12.9 27.4 0.00 0.00 0.00 44
20260904093603 20 163 12.9 27.4 0.00 0.00 0.00 45
20260904092703 20 156 12.9 29.0 0.00 0.00 0.00 46
20260904091803 20 155 14.5 43.5 0.00 0.00 0.00 46
20260904090903 20 153 14.5 27.4 0.00 0.00 0.00 45
20260904090004 20 148 12.9 32.2 0.00 0.00 0.00 44
20260904085403 20 150 12.9 25.7 0.00 0.00 0.00 44
20260904084503 20 147 12.9 27.4 0.00 0.00 0.00 44
20260904083603 21 146 16.1 33.8 0.00 0.00 0.00 43
20260904082703 21 147 17.7 43.5 0.00 0.00 0.00 43
20260904081803 20 144 12.9 37.0 0.00 0.00 0.00 41
20260904080903 20 155 12.9 27.4 0.00 0.00 0.00 39
20260904080003 20 156 12.9 29.0 0.00 0.00 0.00 37
20260904075403 20 162 12.9 27.4 0.00 0.00 0.00 36
20260904074503 20 163 12.9 25.7 0.00 0.00 0.00 33
20260904073603 20 161 11.3 29.0 0.00 0.00 0.00 31
20260904072703 20 162 11.3 25.7 0.00 0.00 0.00 30
20260904071803 20 167 11.3 24.1 0.00 0.00 0.00 29
20260904070903 20 166 12.9 29.0 0.00 0.00 0.00 28
20260904070003 20 168 14.5 25.7 0.00 0.00 0.00 27
20260904065403 20 165 14.5 27.4 0.00 0.00 0.00 26
20260904064503 20 174 12.9 35.4 0.00 0.00 0.00 25
20260904063603 20 170 14.5 25.7 0.00 0.00 0.00 24
20260904062703 20 172 12.9 32.2 0.00 0.00 0.00 23
20260904061803 20 169 12.9 32.2 0.00 0.00 0.00 22
20260904060903 21 169 11.3 25.7 0.00 0.00 0.00 22
20260904060007 21 167 12.9 33.8 0.00 0.00 0.00 21
20260904055614 21 164 11.3 33.8 0.00 0.00 0.00 21
20260904054503 21 160 9.7 20.9 0.00 0.00 0.00 20
20260904053603 21 157 9.7 20.9 0.00 0.00 0.00 19
20260904052703 21 159 11.3 25.7 0.00 0.00 0.00 19
20260904051803 21 155 9.7 24.1 0.00 0.00 0.00 18
20260904050903 21 144 9.7 20.9 0.00 0.00 0.00 18
20260904050214 21 156 11.3 30.6 0.00 0.00 0.00 18
20260904045613 21 154 11.3 24.1 0.00 0.00 0.00 18
20260904044503 21 146 8.0 22.5 0.00 0.00 0.00 17
20260904043814 21 148 11.3 24.1 0.00 0.00 0.00 17
20260904042913 21 138 9.7 22.5 0.00 0.00 0.00 16
20260904042013 21 139 8.0 22.5 0.00 0.00 0.00 17
20260904040903 21 141 9.7 19.3 0.00 0.00 0.00 16
20260904040003 21 145 8.0 17.7 0.00 0.00 0.00 16
20260904035403 21 140 8.0 22.5 0.00 0.00 0.00 17
20260904034503 21 138 6.4 17.7 0.00 0.00 0.00 17
20260904033603 21 133 4.8 16.1 0.00 0.00 0.00 18
20260904032913 21 133 4.8 9.7 0.00 0.00 0.00 18
20260904032014 21 126 3.2 9.7 0.00 0.00 0.00 19
20260904030903 21 140 3.2 9.7 0.00 0.00 0.00 18
20260904030003 22 137 3.2 8.0 0.00 0.00 0.00 18
20260904025403 22 116 4.8 9.7 0.00 0.00 0.00 18
20260904024503 22 122 4.8 16.1 0.00 0.00 0.00 17
20260904023813 21 134 4.8 16.1 0.00 0.00 0.00 17
20260904022703 21 177 1.6 8.0 0.00 0.00 0.00 18
20260904021803 21 169 0.0 3.2 0.00 0.00 0.00 18
20260904020903 22 176 3.2 11.3 0.00 0.00 0.00 17
20260904020003 22 187 6.4 17.7 0.00 0.00 0.00 16
20260904015403 22 184 6.4 20.9 0.00 0.00 0.00 16
20260904014504 23 197 8.0 19.3 0.00 0.00 0.00 16
20260904013603 23 197 9.7 25.7 0.00 0.00 0.00 16
20260904012703 24 193 12.9 29.0 0.00 0.00 0.00 16
20260904011803 24 188 9.7 29.0 0.00 0.00 0.00 16
20260904010903 25 181 12.9 32.2 0.00 0.00 0.00 16
20260904010214 25 190 9.7 24.1 0.00 0.00 0.00 16
20260904005403 25 183 11.3 27.4 0.00 0.00 0.00 16
20260904004503 26 180 12.9 29.0 0.00 0.00 0.00 17
20260904003603 26 158 11.3 33.8 0.00 0.00 0.00 16
20260904002703 26 166 11.3 20.9 0.00 0.00 0.00 16
20260904001803 26 168 12.9 30.6 0.00 0.00 0.00 16
20260904001112 26 167 14.5 33.8 0.00 0.00 0.00 17
20260904000003 26 177 16.1 32.2 0.00 0.00 0.00 16
20260903235403 26 185 17.7 33.8 0.00 0.00 0.00 16
20260903234503 26 196 16.1 37.0 0.00 0.00 0.00 17
20260903233814 26 194 14.5 30.6 0.00 0.00 0.00 16
20260903232703 26 183 17.7 40.2 0.00 0.00 0.00 16
20260903231803 26 197 16.1 32.2 0.00 0.00 0.00 17
20260903230903 26 202 17.7 37.0 0.00 0.00 0.00 17
20260903230003 27 190 16.1 38.6 0.00 0.00 0.00 17
20260903225403 27 186 16.1 35.4 0.00 0.00 0.00 17
20260903224503 27 164 14.5 33.8 0.00 0.00 0.00 17
20260903223603 27 179 17.7 35.4 0.00 0.00 0.00 17
20260903222704 27 193 19.3 35.4 0.00 0.00 0.00 17
20260903222012 27 185 17.7 40.2 0.00 0.00 0.00 18
20260903221114 27 178 16.1 37.0 0.00 0.00 0.00 18